Regional Weather Roundup
Issued by NWS Goodland, KS

Home | Current Version | Previous Version | Graphics & Text | Print | Product List | Glossary On
Versions: 1 2 3 4 5 6 7 8 9 10 11 12 13 14 15 16 17 18 19 20 21 22 23 24 25 26 27 28 29 30 31 32 33 34 35 36 37 38 39 40 41 42 43 44 45 46 47 48 49 50
000
ASUS43 KGLD 280959
RWRGLD

GOODLAND FORECAST AREA HOURLY WEATHER ROUNDUP
NATIONAL WEATHER SERVICE GOODLAND KS
400 AM MDT TUE MAR 28 2017

...OFFICIAL OBSERVATIONS...

CITY           SKY/WX    TMP DP  RH WIND       PRES   REMARKS
GOODLAND KS    CLOUDY    45  42  89 SE15      29.89F
HILL CITY KS   CLOUDY    44  44 100 CALM      29.97R FOG
IMPERIAL NEB   CLOUDY    46  42  86 S6        29.92R
MCCOOK NEB     CLOUDY    45  44  97 SE8       29.94S
AKRON CO       CLOUDY    45  37  73 SE16      29.83F
BURLINGTON CO  CLOUDY    46  41  82 SE17G25   29.87F
LIMON CO       CLOUDY    38  36  92 SE8       29.83F
$$

...UNOFFICIAL OBSERVATIONS...

CITY           SKY/WX    TMP DP  RH WIND       PRES   REMARKS
NORTON KS      FOG       43  39  87 SE8       29.96R VSB 1/2
SHARON SPRINGS   N/A     45  41  87 SE12G18     N/A
TRENTON NEB      N/A     46  32  58 SE6         N/A
KIT CARSON CO    N/A     46  40  79 MISG        N/A
YUMA CO        CLOUDY    43  37  81 E10       29.85F
$$



USA.gov is the U.S. government's official web portal to all federal, state and local government web resources and services.